Idaho Falls, ID

9:54 PM MST on January 17, 2018 (GMT -0700)
Fanning

Weather History for KIDA - March, 2014

Change the Weather History Date:

Thursday, March 20, 2014

  Actual Average Record
Temperature  
Mean Temperature 39 °F 38 °F  
Max Temperature 53 °F 48 °F 68 °F (1999)
Min Temperature 24 °F 27 °F -3 °F (2000)
Degree Days  
Heating Degree Days 26 27  
Month to date heating degree days 507 622  
Since 1 July heating degree days 6024 6424  
Cooling Degree Days 0 0  
Month to date cooling degree days 0 0  
Year to date cooling degree days 0 0  
Moisture  
Dew Point 15 °F    
Average Humidity 42    
Maximum Humidity 63    
Minimum Humidity 20    
Precipitation  
Precipitation 0.00 in 0.03 in 0.41 in (1981)
Month to date precipitation 0.52 0.55  
Year to date precipitation 1.41 1.90  
Sea Level Pressure  
Sea Level Pressure 29.95 in    
Wind  
Wind Speed 20 mph (SW)    
Max Wind Speed 44 mph    
Max Gust Speed 56 mph    
Visibility 10 miles    
Events      
T = Trace of Precipitation, MM = Missing Value Source: NWS Daily Summary

Daily Weather History Graph

Daily Weather History Graph

Search for Another Location

Airport or City:

Trip Planner

Search our weather history database for the weather conditions in past years. The results will help you decide how hot, cold, wet, or windy it might be!

Date:

Astronomy

Mar. 20, 2014 Rise Set
Actual Time 7:31 AM MDT 7:40 PM MDT
Civil Twilight 7:02 AM MDT 8:09 PM MDT
Nautical Twilight 6:29 AM MDT 8:42 PM MDT
Astronomical Twilight 5:55 AM MDT 9:17 PM MDT
Moon No Moon Rise 9:33 AM MDT (3/20)
Length of Visible Light 13h 06m
Length of Day
12h 09m
Waning Gibbous, 83% of the Moon is Illuminated
Mar 20
Waning Gibbous
Mar 23
Last Quarter
Mar 30
New
Apr 7
First Quarter
Apr 15
Full

Hourly Weather History & Observations

Time (MDT) Temp. Windchill Dew Point Humidity Pressure Visibility Wind Dir Wind Speed Gust Speed Precip Events Conditions
12:53 AM 39.9 °F 31.8 °F 15.1 °F 36% 30.02 in 10.0 mi South 15.0 mph - N/A   Clear
1:53 AM 37.0 °F 31.0 °F 17.1 °F 44% 30.01 in 10.0 mi SSW 8.1 mph - N/A   Clear
2:53 AM 32.0 °F 25.6 °F 19.0 °F 59% 30.01 in 10.0 mi SSW 6.9 mph - N/A   Clear
3:53 AM 30.9 °F 23.5 °F 19.0 °F 61% 29.99 in 10.0 mi SSW 8.1 mph - N/A   Clear
4:53 AM 30.9 °F 22.2 °F 19.0 °F 61% 29.97 in 10.0 mi SW 10.4 mph - N/A   Clear
5:53 AM 32.0 °F 22.5 °F 18.0 °F 56% 29.95 in 10.0 mi SSW 12.7 mph - N/A   Clear
6:53 AM 32.0 °F 22.1 °F 18.0 °F 56% 29.95 in 10.0 mi SSW 13.8 mph - N/A   Clear
7:53 AM 37.0 °F 25.9 °F 15.1 °F 41% 29.94 in 10.0 mi SSW 23.0 mph 29.9 mph N/A   Scattered Clouds
8:53 AM 39.9 °F 29.0 °F 16.0 °F 38% 29.92 in 10.0 mi SSW 26.5 mph 34.5 mph N/A   Scattered Clouds
9:53 AM 42.1 °F 32.1 °F 19.9 °F 41% 29.93 in 10.0 mi SSW 25.3 mph 34.5 mph N/A   Scattered Clouds
10:53 AM 45.0 °F 35.2 °F 18.0 °F 34% 29.94 in 8.0 mi SW 29.9 mph 39.1 mph N/A   Blowing Sand
11:53 AM 48.9 °F - 15.1 °F 26% 29.91 in 7.0 mi SW 34.5 mph 50.6 mph N/A   Widespread Dust
12:53 PM 51.1 °F - 17.1 °F 26% 29.89 in 7.0 mi WSW 35.7 mph 46.0 mph N/A   Widespread Dust
1:53 PM 51.1 °F - 16.0 °F 25% 29.89 in 7.0 mi SW 34.5 mph 51.8 mph N/A   Widespread Dust
2:53 PM 53.1 °F - 16.0 °F 23% 29.87 in 10.0 mi SW 35.7 mph 48.3 mph N/A   Widespread Dust
3:53 PM 52.0 °F - 12.0 °F 20% 29.88 in 10.0 mi SW 31.1 mph 46.0 mph N/A   Widespread Dust
4:53 PM 52.0 °F - 12.0 °F 20% 29.88 in 10.0 mi SW 36.8 mph 48.3 mph N/A   Widespread Dust
5:53 PM 50.0 °F - 10.9 °F 21% 29.90 in 10.0 mi SW 24.2 mph 40.3 mph N/A   Widespread Dust
6:53 PM 46.9 °F - 10.0 °F 22% 29.92 in 10.0 mi SW 26.5 mph 36.8 mph N/A   Partly Cloudy
7:53 PM 43.0 °F 35.4 °F 10.0 °F 26% 29.94 in 10.0 mi SW 16.1 mph 25.3 mph N/A   Clear
8:53 PM 39.0 °F 34.0 °F 10.0 °F 30% 29.98 in 10.0 mi Variable 6.9 mph - N/A   Clear
9:53 PM 36.0 °F 29.6 °F 10.0 °F 34% 30.02 in 10.0 mi ENE 8.1 mph - N/A   Clear
10:53 PM 30.0 °F 21.7 °F 12.0 °F 47% 30.07 in 10.0 mi North 9.2 mph - N/A   Clear
11:53 PM 25.0 °F 17.1 °F 12.9 °F 60% 30.11 in 10.0 mi North 6.9 mph - N/A   Clear